CW5521 Weather Reports


time (UTC)temp
C
wind
direction
speed
KPH
gust
KPH
rain 1hr
cm
rain 24hr
cm
rain mn
cm
humidity
%
barometer
mb
20260506031542 10 307 0.0 0.0 0.00 0.00 0.00 63 1011.0
20260506030527 10 307 0.0 0.0 0.00 0.00 0.00 64 1010.9
20260506025538 10 307 0.0 0.0 0.00 0.00 0.00 63 1010.9
20260506024520 10 307 0.0 0.0 0.00 0.00 0.00 64 1010.7
20260506023507 10 307 0.0 0.0 0.00 0.00 0.00 63 1010.5
20260506022449 10 307 0.0 0.0 0.00 0.00 0.00 61 1010.6
20260506021424 10 307 0.0 0.0 0.00 0.03 0.00 63 1010.7
20260506020357 10 307 0.0 0.0 0.00 0.03 0.00 62 1010.3
20260506015407 10 307 0.0 0.0 0.00 0.05 0.00 61 1010.0
20260506014343 10 307 0.0 0.0 0.00 0.05 0.00 59 1009.8
20260506013326 10 307 0.0 0.0 0.00 0.10 0.00 57 1009.7
20260506012334 10 307 0.0 0.0 0.00 0.10 0.00 57 1009.9
20260506011343 11 307 0.0 0.0 0.00 0.10 0.00 57 1009.8
20260506010318 11 307 0.0 0.0 0.00 0.10 0.00 56 1009.8
20260506005324 11 307 0.0 0.0 0.00 0.10 0.00 55 1009.5
20260506004321 11 307 0.0 0.0 0.00 0.10 0.00 55 1009.5
20260506003253 11 307 0.0 0.0 0.00 0.10 0.00 55 1009.3
20260506002246 11 307 0.0 0.0 0.00 0.10 0.00 54 1009.3
20260506001302 11 307 0.0 0.0 0.00 0.10 0.00 54 1009.2
20260506000316 11 307 0.0 0.0 0.00 0.10 0.00 52 1009.2
20260505235250 11 307 0.0 0.0 0.00 0.10 0.00 52 1009.1
20260505234307 12 307 0.0 0.0 0.00 0.10 0.00 51 1009.0
20260505233238 12 306 0.0 0.0 0.00 0.10 0.00 49 1009.2
20260505232248 12 306 0.0 0.0 0.00 0.10 0.00 49 1009.2
20260505231233 12 305 0.0 0.0 0.00 0.10 0.00 48 1009.2
20260505230243 12 300 0.0 0.0 0.00 0.10 0.00 48 1009.3
20260505225242 12 317 0.0 0.0 0.00 0.10 0.00 48 1009.1
20260505224306 12 298 0.0 0.0 0.00 0.10 0.00 47 1009.3
20260505223254 12 285 0.0 0.0 0.00 0.10 0.00 47 1009.4
20260505222245 12 322 0.0 0.0 0.00 0.10 0.00 48 1009.4
20260505221241 12 296 0.0 0.0 0.00 0.10 0.00 48 1009.2
20260505220222 12 292 0.0 0.0 0.00 0.10 0.00 48 1009.4
20260505215153 12 303 0.0 0.0 0.00 0.10 0.00 49 1009.5
20260505214150 12 309 0.0 0.0 0.00 0.10 0.00 50 1009.6
20260505213211 12 309 0.0 0.0 0.00 0.10 0.00 50 1009.7
20260505212231 12 293 0.0 0.0 0.00 0.10 0.00 49 1009.5
20260505211204 12 293 0.0 0.0 0.00 0.10 0.00 48 1009.5
20260505210140 12 329 0.0 0.0 0.00 0.10 0.00 48 1009.5
20260505205116 12 295 0.0 0.0 0.00 0.10 0.00 48 1009.7
20260505204120 12 287 0.0 0.0 0.00 0.10 0.00 48 1010.1
20260505201951 12 267 0.0 0.0 0.00 0.10 0.00 51 1010.2
20260505200951 12 277 0.0 0.0 0.00 0.10 0.00 50 1010.2
20260505194812 12 304 0.0 0.0 0.00 0.10 0.00 51 1010.4
20260505193740 12 290 0.0 0.0 0.00 0.10 0.00 51 1010.5
20260505192715 12 342 0.0 0.0 0.00 0.10 0.00 59 1010.4
20260505191736 11 236 0.0 0.0 0.00 0.10 0.00 62 1010.4
20260505190738 11 234 0.0 0.0 0.00 0.10 0.00 62 1010.4
20260505185757 12 287 0.0 0.0 0.00 0.10 0.00 62 1010.3
20260505184737 11 288 0.0 0.0 0.00 0.10 0.00 61 1010.3
20260505183753 11 290 0.0 0.0 0.00 0.10 0.00 63 1010.4
20260505182749 11 290 0.0 0.0 0.00 0.10 0.00 61 1010.4
20260505181717 11 290 0.0 0.0 0.00 0.10 0.00 62 1010.5
20260505175602 11 290 0.0 0.0 0.00 0.10 0.00 59 1010.6
20260505174616 11 290 0.0 0.0 0.00 0.10 0.00 61 1010.7
20260505173556 11 293 0.0 0.0 0.00 0.10 0.00 60 1010.6
20260505172536 11 296 0.0 0.0 0.00 0.10 0.00 61 1010.6
20260505170410 11 323 0.0 0.0 0.00 0.10 0.00 59 1010.4
20260505165400 11 323 0.0 0.0 0.00 0.10 0.00 61 1010.2
20260505164408 11 315 0.0 0.0 0.00 0.10 0.00 61 1010.1
20260505163419 11 298 0.0 0.0 0.00 0.10 0.00 60 1010.2
20260505162422 11 300 0.0 0.0 0.00 0.10 0.00 60 1010.2
20260505161411 11 341 0.0 0.0 0.00 0.10 0.00 60 1010.1
20260505160337 11 324 0.0 0.0 0.00 0.10 0.00 62 1010.0
20260505153147 11 336 0.0 0.0 0.00 0.10 0.00 64 1009.3
20260505150926 11 328 0.0 0.0 0.00 0.10 0.00 65 1009.2
20260505140623 8 323 0.0 0.0 0.00 0.10 0.00 80 1008.8
20260505124636 7 312 0.0 0.0 0.00 0.10 0.00 81 1009.3
20260505123634 7 308 0.0 0.0 0.00 0.10 0.00 80 1009.7
20260505122650 7 315 0.0 0.0 0.00 0.10 0.00 79 1010.0
20260505121621 7 289 0.0 0.0 0.00 0.10 0.00 77 1010.3
20260505115504 8 285 0.0 0.0 0.00 0.10 0.00 71 1010.2
20260505114443 8 256 0.0 0.0 0.00 0.10 0.00 72 1009.5
20260505113449 8 300 0.0 0.0 0.00 0.10 0.00 71 1008.2
20260505112510 8 277 0.0 0.0 0.00 0.10 0.00 71 1007.5
20260505111506 8 309 0.0 0.0 0.00 0.10 0.00 69 1007.7
20260505100138 10 340 0.0 0.0 0.00 0.10 0.00 66 1006.9
20260505095116 10 302 0.0 0.0 0.00 0.10 0.00 67 1007.1
20260505094130 10 295 0.0 0.0 0.00 0.10 0.00 68 1006.8
20260505093120 10 302 0.0 0.0 0.00 0.10 0.00 67 1006.9
20260505092115 10 323 0.0 0.0 0.00 0.10 0.00 69 1006.7
20260505091103 10 298 0.0 0.0 0.00 0.10 0.00 68 1007.4
20260505090122 10 309 0.0 0.0 0.00 0.10 0.00 67 1006.8
20260505083936 10 291 0.0 0.0 0.00 0.10 0.00 68 1006.4
20260505082938 10 292 0.0 0.0 0.00 0.10 0.00 68 1006.2
20260505081939 10 315 0.0 0.0 0.00 0.10 0.00 68 1006.0
20260505080930 10 317 0.0 0.0 0.00 0.10 0.00 68 1005.8
20260505075930 10 304 0.0 0.0 0.00 0.10 0.00 68 1005.7
20260505073830 10 297 0.0 0.0 0.00 0.10 0.00 68 1005.0
20260505072759 10 297 0.0 0.0 0.00 0.10 0.00 68 1004.8
20260505071735 11 297 0.0 0.0 0.00 0.10 0.00 67 1004.6
20260505065551 11 332 0.0 0.0 0.00 0.10 0.00 68 1004.3
20260505064519 11 332 0.0 0.0 0.00 0.10 0.00 69 1004.3
20260505063451 11 333 0.0 0.0 0.00 0.10 0.00 72 1004.1
20260505062415 12 333 0.0 0.0 0.00 0.10 0.00 72 1003.9
20260505061408 12 349 0.0 0.0 0.00 0.10 0.00 73 1003.6
20260505060346 12 351 0.0 0.0 0.00 0.10 0.00 75 1003.5
20260505055330 12 351 0.0 0.0 0.00 0.10 0.00 74 1003.2
20260505054351 12 351 0.0 0.0 0.00 0.10 0.00 73 1003.5
20260505053335 13 351 0.0 0.0 0.00 0.10 0.00 73 1003.2
20260505051158 13 344 0.0 0.0 0.00 0.10 0.00 78 1002.8
20260505040804 15 11 0.0 0.0 0.00 0.10 0.10 78 1001.8
20260505035756 15 329 0.0 0.0 0.00 0.10 0.10 79 1001.5
20260505034820 15 311 0.0 0.0 0.00 0.10 0.10 81 1001.2